Wind_Speed
28 27 26 25 22 21 19 19 18 17 16 14 13 13 13 13 14 14 14 14 14 15 16 17 18 17 18 18 19 20 22 23 25 26 28 30 31 33 35 38 41 44 45
31 29 28 26 25 23 21 20 20 19 17 15 14 14 13 14 14 15 15 16 16 17 18 18 18 18 19 20 21 22 24 25 26 28 31 33 35 37 39 41 42 44 47
33 32 31 29 27 25 23 22 22 21 19 17 15 14 14 15 14 15 16 17 17 18 19 19 20 21 21 23 24 26 28 29 30 31 33 35 37 40 42 44 45 48 50
35 35 32 31 28 26 25 24 23 22 20 18 16 15 15 15 15 16 17 17 18 19 19 20 20 20 22 23 25 27 28 30 32 34 35 37 39 41 43 45 47 49 52
38 36 34 33 30 27 27 26 25 24 22 19 17 17 16 15 15 16 17 18 19 19 20 20 21 22 23 24 25 27 30 32 34 35 36 38 40 42 44 46 48 51 52
40 38 37 36 34 29 28 29 26 25 24 21 19 18 17 15 15 16 17 18 19 19 20 20 21 22 23 24 25 28 30 32 34 36 37 38 40 42 44 46 48 50 54
42 41 40 38 35 32 32 31 28 26 25 22 20 20 17 15 15 15 17 19 20 20 20 21 21 21 23 24 25 28 30 31 33 35 36 39 42 42 43 42 41 40 42
44 44 42 39 37 34 34 31 27 26 26 25 22 20 18 16 16 17 16 20 20 20 19 21 21 21 22 24 25 27 29 31 33 36 38 38 38 38 35 35 35 35 35
44 45 44 41 39 35 34 31 27 28 29 26 23 21 18 17 15 17 19 19 19 19 18 19 21 20 21 22 24 27 30 31 33 36 36 36 34 31 31 35 36 38 39
41 42 46 44 47 37 37 33 31 31 29 29 24 21 19 18 17 18 20 19 18 18 17 17 18 19 20 21 24 26 28 29 33 35 34 32 28 28 32 36 35 35 33
37 42 46 46 45 44 37 33 34 32 32 30 25 21 20 18 17 19 20 18 18 17 17 16 16 17 19 21 23 24 27 30 32 33 31 26 26 29 33 35 33 32 29
38 38 46 46 50 42 36 36 34 34 32 30 26 21 18 16 17 20 19 18 18 16 15 15 15 16 18 20 21 23 26 28 29 30 28 24 27 29 33 35 32 29 27
36 34 45 47 46 37 39 38 37 36 33 28 27 19 14 17 20 21 20 18 16 15 14 14 15 16 17 18 20 22 23 25 28 27 26 26 27 30 32 33 33 31 30
37 36 37 51 40 40 39 34 33 35 34 30 23 15 17 24 21 20 18 16 14 14 14 14 14 15 16 17 19 20 22 24 25 25 25 26 26 27 28 29 31 32 29
40 43 49 49 41 37 36 33 36 33 30 27 28 29 19 21 19 19 17 15 14 13 13 14 14 15 15 16 17 19 20 22 23 23 24 26 27 27 28 28 28 31 30
53 62 53 42 36 36 32 34 32 33 31 32 38 30 20 20 19 18 16 14 12 13 12 14 15 15 15 15 16 17 19 21 21 22 23 24 25 26 27 26 26 28 29
61 54 46 45 31 34 33 32 33 36 39 33 41 21 21 20 19 18 15 13 13 12 12 13 14 15 14 14 15 17 18 20 21 22 23 24 25 25 26 27 25 26 25
49 41 39 44 45 37 34 35 36 40 45 42 25 21 22 20 19 17 15 13 12 12 12 13 14 14 13 14 14 15 18 21 24 25 26 26 26 25 25 27 27 27 25
40 35 36 34 34 32 33 34 41 40 31 29 23 21 21 20 19 17 14 13 12 12 13 14 14 13 11 10 13 17 19 20 22 24 25 25 24 23 23 24 26 26 25
29 31 34 28 27 30 35 36 38 34 28 29 23 22 21 20 18 16 14 13 12 12 14 14 13 11 8 10 12 15 17 19 21 23 23 24 23 22 22 21 23 25 24
27 30 32 26 29 35 33 31 25 26 21 22 23 21 20 20 17 16 14 13 12 14 14 14 12 10 10 10 11 13 15 17 19 21 21 20 21 21 21 20 19 20 22
30 33 30 28 26 32 33 27 30 24 22 25 21 18 19 18 17 16 14 13 14 14 14 13 13 13 13 11 12 14 16 17 18 19 20 20 20 21 21 21 20 21 20
22 24 29 28 31 30 31 35 32 27 23 24 19 19 19 18 17 15 15 15 15 15 14 15 15 15 14 13 13 14 16 18 18 19 19 20 20 20 20 21 21 20 21
21 26 30 30 30 32 36 42 37 28 26 23 20 20 20 19 17 16 16 16 15 15 16 16 17 16 14 13 14 15 16 18 19 20 20 20 20 21 21 22 22 21 21
18 27 31 30 31 34 37 31 31 25 25 25 22 21 20 19 18 17 18 17 16 16 18 19 18 16 15 15 16 16 17 18 18 19 21 23 20 20 20 20 21 21 21
21 27 31 34 35 30 31 32 31 31 29 27 23 22 21 19 19 19 18 18 17 17 19 20 19 17 16 17 18 18 19 20 21 21 23 23 24 23 20 20 20 20 20
Wind_Direction
236 237 241 244 246 251 253 254 252 254 259 267 280 291 298 303 305 305 304 304 307 308 308 307 305 302 298 296 294 293 292 290 288 286 284 281 278 275 272 269 266 262 257
238 236 239 241 244 247 248 250 250 251 256 263 275 286 295 302 304 304 305 306 306 305 304 303 300 298 297 297 296 295 292 291 289 286 284 282 280 277 275 273 270 267 264
240 236 237 238 241 245 245 245 246 248 253 260 271 279 288 297 301 305 307 307 306 305 304 302 303 304 304 303 304 302 301 298 296 294 293 290 288 286 282 277 273 269 265
240 237 234 236 239 244 245 245 244 247 250 257 267 275 284 294 302 307 307 306 305 304 303 302 302 302 302 301 301 300 301 302 304 304 302 300 297 294 290 285 279 274 268
243 238 233 234 236 241 243 242 242 245 249 254 260 267 278 293 304 307 306 305 303 301 300 299 298 299 299 301 304 309 312 313 312 309 305 302 299 294 290 286 283 279 273
243 240 231 232 235 233 244 242 239 243 247 252 258 264 275 290 301 304 302 301 299 297 295 295 296 299 303 306 311 314 314 314 314 311 305 300 303 303 300 296 289 283 277
241 239 231 231 232 235 234 237 236 241 246 251 255 260 270 287 295 296 299 297 295 293 293 295 298 303 306 308 312 313 316 316 312 310 315 314 311 310 306 301 297 293 285
241 238 231 229 231 229 241 236 236 242 247 249 252 257 265 277 292 296 296 293 290 290 292 298 302 305 306 307 310 315 319 320 321 321 320 317 313 308 306 304 298 297 292
243 237 232 227 228 227 232 236 236 241 245 249 252 259 262 275 288 296 294 288 287 287 293 297 301 303 303 305 312 319 322 325 327 325 323 320 314 310 310 308 300 292 294
245 241 233 225 227 231 228 228 235 237 245 248 247 254 262 274 285 292 289 284 282 284 288 293 297 299 302 308 317 323 327 328 331 330 326 323 313 314 320 322 310 295 291
243 242 240 228 231 220 226 227 233 235 244 243 245 247 262 277 285 288 283 279 277 281 286 291 295 300 304 313 321 326 331 335 335 333 328 323 319 320 323 327 329 315 301
234 234 240 228 230 234 219 229 233 237 238 238 238 243 259 270 282 282 277 275 276 281 288 294 300 300 304 313 323 330 334 334 337 338 335 325 320 322 320 325 326 320 312
237 239 244 228 230 226 227 229 229 237 233 241 235 240 254 281 287 275 272 271 278 283 288 293 296 298 304 317 325 331 332 333 336 340 337 326 320 318 319 319 323 327 320
232 234 241 243 221 222 229 223 229 230 234 225 225 245 280 282 272 264 264 270 273 281 288 290 292 299 310 318 324 327 329 331 333 341 341 334 330 324 321 323 324 327 326
226 230 233 229 208 220 222 224 229 223 220 212 226 242 266 264 255 256 258 260 269 276 282 288 294 300 307 314 321 326 328 327 335 338 340 342 338 328 327 325 329 336 335
232 236 230 213 205 218 222 220 222 227 215 223 239 246 258 251 247 248 249 252 259 266 275 285 291 299 303 312 320 327 325 329 336 338 339 338 340 344 340 335 331 335 342
240 233 234 220 195 209 212 219 219 223 227 233 253 250 250 248 245 245 246 249 256 263 272 280 290 293 301 310 322 323 324 329 330 331 331 334 339 343 344 344 342 343 344
233 230 237 225 195 203 213 220 218 231 238 247 249 243 243 241 241 243 243 248 254 265 275 284 287 291 300 313 321 324 325 325 321 323 326 328 328 332 341 342 347 352 352
230 225 224 212 202 199 211 221 231 240 237 245 239 237 238 237 237 238 240 247 256 267 279 282 286 290 297 311 319 324 328 326 325 329 330 329 327 328 332 339 342 347 354
244 250 223 212 208 216 224 223 229 236 242 243 229 232 232 234 233 236 241 246 257 267 274 282 283 286 294 305 318 326 328 330 333 334 333 333 334 337 335 336 339 340 348
225 221 221 211 205 227 219 218 224 220 218 223 226 227 230 231 233 236 241 250 260 266 273 279 282 279 279 300 314 326 327 328 332 332 332 336 338 341 343 343 340 339 344
223 207 205 210 221 207 211 222 234 222 215 228 224 225 232 233 234 235 242 252 257 264 275 277 275 274 284 298 313 317 323 328 331 328 329 330 331 334 337 343 344 343 344
216 213 211 208 203 206 214 226 235 218 215 227 222 226 230 234 237 238 244 249 255 263 270 274 274 278 287 296 308 315 319 323 326 327 328 329 330 332 332 335 339 341 343
218 215 209 214 211 214 217 224 227 208 220 224 227 228 230 232 234 238 245 249 255 263 271 270 271 274 279 289 297 306 314 319 321 323 322 322 323 324 325 326 330 332 334
223 213 216 221 222 223 229 216 222 211 221 226 226 227 229 231 234 237 244 250 250 260 267 269 271 273 279 287 294 300 306 310 314 316 318 318 319 319 319 320 320 322 325
225 225 223 221 224 230 235 232 228 208 220 223 222 226 226 229 233 236 246 252 257 264 266 269 271 274 280 285 290 297 303 307 309 312 315 317 317 319 317 316 316 317 319
Height
3139 3141 3142 3143 3144 3145 3146 3146 3147 3148 3149 3149 3149 3149 3148 3147 3146 3145 3144 3142 3141 3140 3138 3138 3138 3137 3137 3136 3135 3134 3134 3132 3132 3131 3130 3130 3129 3128 3128 3128 3128 3129 3130
3133 3135 3137 3138 3140 3140 3141 3142 3143 3144 3145 3145 3145 3144 3144 3143 3142 3141 3139 3138 3137 3136 3135 3135 3134 3133 3132 3131 3130 3129 3127 3127 3126 3125 3123 3122 3121 3121 3119 3118 3118 3118 3119
3126 3128 3131 3132 3134 3136 3136 3137 3138 3140 3140 3140 3141 3140 3140 3139 3138 3136 3135 3134 3134 3133 3132 3130 3129 3129 3127 3125 3124 3122 3120 3120 3119 3116 3115 3113 3111 3110 3108 3107 3106 3106 3106
3120 3121 3124 3126 3128 3130 3131 3133 3133 3135 3135 3136 3136 3136 3136 3135 3134 3133 3132 3131 3130 3128 3127 3126 3125 3124 3123 3121 3120 3117 3115 3113 3110 3108 3105 3102 3100 3098 3095 3093 3092 3092 3091
3112 3114 3117 3120 3122 3124 3126 3127 3128 3129 3130 3130 3131 3131 3132 3131 3130 3129 3128 3127 3126 3124 3123 3122 3121 3120 3118 3117 3114 3111 3108 3104 3101 3099 3097 3093 3090 3087 3083 3081 3077 3075 3074
3104 3106 3109 3112 3115 3116 3119 3121 3122 3124 3125 3125 3126 3126 3126 3126 3125 3124 3123 3122 3121 3120 3118 3117 3116 3114 3112 3110 3108 3104 3101 3098 3094 3090 3088 3084 3078 3073 3068 3064 3061 3059 3056
3095 3098 3101 3104 3107 3109 3111 3113 3115 3118 3119 3120 3121 3121 3121 3121 3120 3119 3118 3117 3117 3115 3113 3112 3110 3108 3106 3104 3102 3100 3096 3092 3089 3084 3078 3072 3067 3061 3056 3052 3049 3046 3042
3086 3088 3092 3096 3100 3101 3105 3107 3109 3112 3113 3114 3115 3115 3116 3116 3115 3114 3112 3113 3111 3110 3108 3106 3104 3103 3102 3100 3098 3094 3090 3085 3080 3074 3069 3065 3059 3054 3049 3045 3042 3036 3032
3075 3079 3083 3086 3091 3092 3096 3099 3101 3104 3107 3107 3108 3110 3110 3110 3108 3108 3107 3107 3106 3105 3103 3102 3100 3098 3097 3095 3092 3087 3083 3078 3073 3068 3062 3056 3052 3047 3043 3038 3032 3027 3024
3067 3071 3073 3076 3079 3080 3087 3091 3094 3096 3099 3101 3102 3103 3103 3103 3102 3102 3102 3101 3100 3099 3098 3097 3095 3094 3092 3089 3085 3081 3077 3072 3066 3061 3055 3049 3046 3041 3036 3029 3023 3019 3014
3056 3061 3064 3067 3070 3071 3077 3082 3086 3089 3092 3094 3095 3096 3096 3096 3096 3096 3095 3096 3095 3094 3092 3091 3089 3088 3086 3083 3079 3075 3070 3065 3060 3056 3050 3044 3040 3036 3030 3024 3018 3011 3007
3045 3049 3052 3056 3059 3059 3068 3075 3079 3083 3084 3086 3087 3088 3089 3090 3090 3090 3090 3090 3089 3088 3087 3086 3084 3083 3080 3077 3073 3069 3064 3060 3056 3051 3045 3040 3036 3032 3026 3019 3013 3007 3002
3036 3040 3042 3044 3049 3055 3062 3066 3070 3075 3077 3079 3080 3080 3082 3083 3084 3084 3084 3084 3083 3083 3082 3080 3078 3077 3075 3072 3068 3064 3060 3057 3052 3046 3041 3036 3032 3028 3021 3014 3009 3003 2997
3027 3030 3033 3033 3036 3048 3054 3058 3062 3066 3070 3072 3072 3073 3075 3078 3079 3079 3079 3079 3078 3077 3076 3075 3074 3071 3069 3066 3064 3060 3056 3053 3049 3043 3037 3033 3028 3023 3017 3010 3004 2998 2993
3017 3017 3016 3018 3027 3041 3044 3049 3056 3058 3061 3062 3062 3065 3071 3073 3072 3073 3073 3073 3072 3072 3072 3071 3069 3067 3065 3062 3060 3056 3053 3050 3045 3040 3035 3030 3024 3019 3013 3006 3000 2994 2988
3001 3000 3000 3004 3017 3032 3037 3042 3047 3050 3052 3052 3058 3063 3066 3066 3066 3067 3067 3067 3067 3067 3066 3066 3065 3063 3061 3058 3054 3051 3049 3045 3041 3036 3032 3028 3022 3016 3009 3002 2997 2991 2985
2987 2989 2994 2997 3006 3022 3030 3034 3039 3043 3045 3048 3054 3058 3059 3060 3061 3062 3062 3063 3063 3063 3062 3061 3061 3059 3057 3054 3050 3047 3044 3041 3038 3034 3030 3024 3019 3014 3007 3001 2995 2989 2984
2978 2981 2988 2988 2998 3009 3022 3027 3033 3035 3038 3044 3049 3051 3053 3054 3056 3058 3057 3057 3058 3059 3057 3057 3057 3055 3053 3050 3046 3043 3040 3037 3035 3031 3026 3021 3016 3011 3006 2999 2994 2987 2982
2970 2977 2976 2987 2994 3007 3017 3023 3025 3028 3033 3038 3042 3045 3047 3049 3051 3052 3052 3052 3052 3052 3052 3052 3052 3051 3048 3045 3043 3040 3036 3033 3030 3026 3022 3018 3013 3008 3004 2998 2992 2987 2982
2969 2968 2971 2980 2991 3002 3010 3015 3020 3024 3026 3030 3035 3039 3041 3043 3045 3046 3046 3047 3047 3046 3048 3047 3046 3046 3044 3041 3039 3037 3033 3029 3026 3023 3020 3015 3010 3005 3001 2997 2992 2986 2981
2962 2965 2973 2976 2989 2998 3001 3009 3014 3016 3020 3024 3028 3032 3036 3037 3038 3039 3041 3041 3042 3042 3042 3042 3040 3041 3040 3037 3035 3033 3030 3026 3023 3020 3017 3013 3009 3004 2999 2995 2991 2986 2981
2955 2959 2965 2973 2984 2990 2998 3004 3010 3010 3014 3020 3023 3026 3030 3032 3032 3032 3034 3035 3037 3038 3037 3037 3036 3037 3035 3032 3031 3030 3026 3023 3020 3018 3015 3011 3007 3002 2998 2993 2989 2984 2981
2951 2958 2965 2971 2979 2985 2991 2997 3003 3007 3010 3015 3017 3020 3024 3026 3026 3027 3029 3031 3032 3034 3031 3033 3033 3032 3031 3029 3027 3026 3024 3021 3017 3014 3012 3008 3005 3001 2996 2991 2988 2983 2978
2951 2955 2962 2969 2975 2980 2984 2991 2996 3001 3005 3009 3012 3015 3018 3021 3020 3022 3025 3026 3028 3028 3029 3027 3027 3026 3025 3023 3023 3022 3020 3017 3014 3011 3008 3005 3002 2998 2994 2989 2985 2982 2978
2948 2953 2959 2963 2970 2977 2981 2986 2990 2995 3000 3004 3007 3009 3012 3015 3015 3016 3020 3020 3021 3020 3023 3023 3022 3022 3020 3018 3018 3016 3014 3012 3009 3007 3004 3002 2999 2995 2991 2987 2983 2979 2976
2947 2951 2955 2959 2965 2971 2977 2981 2984 2988 2995 2999 3000 3002 3005 3008 3009 3011 3013 3015 3015 3016 3016 3017 3017 3016 3014 3013 3012 3011 3009 3007 3005 3003 3000 2998 2994 2991 2988 2984 2981 2977 2973